Regional Weather Roundup
Issued by NWS Goodland, KS

Home | Current Version | Previous Version | Graphics & Text | Print | Product List | Glossary On
Versions: 1 2 3 4 5 6 7 8 9 10 11 12 13 14 15 16 17 18 19 20 21 22 23 24 25 26 27 28 29 30 31 32 33 34 35 36 37 38 39 40 41 42 43 44 45 46 47 48 49 50
000
ASUS43 KGLD 230459
RWRGLD

GOODLAND FORECAST AREA HOURLY WEATHER ROUNDUP
NATIONAL WEATHER SERVICE GOODLAND KS
1100 PM MDT MON SEP 22 2014

...OFFICIAL OBSERVATIONS...

CITY           SKY/WX    TMP DP  RH WIND       PRES   REMARKS
GOODLAND KS    TSTM      62  57  83 NW22G31   30.19R
HILL CITY KS   CLOUDY    69  45  41 S16G26    30.09F
IMPERIAL NEB   CLOUDY    61  54  77 S8        30.05F
MCCOOK NEB     RAIN      60  56  86 S26G37    30.06F FOG
AKRON CO       MOCLDY    59  55  87 SW12      30.08R
BURLINGTON CO  TSTM      60  54  80 NW15      30.19R
LIMON CO       CLOUDY    57  54  89 SE6       30.15R
$$

...UNOFFICIAL OBSERVATIONS...

CITY           SKY/WX    TMP DP  RH WIND       PRES   REMARKS
COLBY KS       LGT RAIN  61  61 100 N10       30.18R
GOVE KS          N/A     69  32  25 MISG        N/A
NORTON KS      CLOUDY    64  43  45 NW17G24   30.13R
SHARON SPRINGS   N/A     66  53  62 S13         N/A
WAKEENEY KS      N/A     67  39  35 MISG        N/A
KIT CARSON CO    N/A     67  56  69 N7          N/A
YUMA CO          N/A     59  55  85 CALM        N/A
$$


USA.gov is the U.S. government's official web portal to all federal, state and local government web resources and services.